[[{"header":{"parameterUnit":"m.s-1","parameterCategory":2,"la1":30.2991,"la2":30.254,"lo1":-89.0895,"lo2":-89.0444,"dy":0.0017,"dx":0.0017,"nx":28,"ny":28,"refTime":"2025-03-21T21:00:00:Z","depth":"0","parameterNumber":2,"parameterNumberName":"U-component_of_CURRENTS"},"data":[0,0,0,0,0,0,0,0,0,0,0,0,0,0,0,0,0,0,0,0,0,0,0,0,0,0,0,0,0,0,0,0,0,0,0,0,0,0,0,0,0,0,0,0,0,0,0,0,0,0,0,0,0,0,0,0,0,0,-0.2728,-0.2729,0,-0.2856,-0.2858,-0.286,-0.2883,-0.2882,-0.288,-0.2879,-0.3104,-0.3111,-0.3118,0,0,0,0,0,0,0,0,0,0,0,0,0,-0.2687,-0.2686,-0.2728,-0.2729,-0.2731,-0.2856,-0.2858,-0.286,-0.2883,-0.2882,-0.288,-0.2878,-0.3101,-0.311,-0.3118,0,0,0,0,0,0,0,0,0,0,0,0,0,-0.2751,-0.2686,-0.2728,-0.2755,-0.2758,-0.2856,-0.2858,-0.2861,-0.2884,-0.2881,-0.2879,-0.2878,-0.3098,-0.3109,-0.312,-0.3227,0,0,-0.3153,-0.3157,0,0,0,0,0,0,0,0,-0.2747,-0.2753,-0.275,-0.2753,-0.2757,-0.2849,-0.2926,-0.2987,-0.2884,-0.2839,-0.2879,-0.2877,-0.3027,-0.3043,-0.3075,-0.3237,-0.3247,-0.3154,-0.316,-0.3165,-0.3168,0,0,0,0,0,0,0,-0.2743,-0.2749,-0.2782,-0.2751,-0.2756,-0.2823,-0.2829,-0.2938,-0.2947,-0.2843,-0.2844,-0.2854,-0.303,-0.3064,-0.3081,-0.325,-0.3153,-0.3163,-0.317,-0.3174,-0.3394,-0.3393,0,0,0,0,0,0,-0.2713,-0.2743,-0.2778,-0.2785,-0.2744,-0.2825,-0.2831,-0.2824,-0.2944,-0.2958,-0.2856,-0.2855,-0.3047,-0.3068,-0.3089,-0.3144,-0.3165,-0.3175,-0.3181,-0.3395,-0.3394,-0.3393,0,0,0,0,0,0,-0.2711,-0.2714,-0.2773,-0.2766,-0.2778,-0.2826,-0.2819,-0.2827,-0.2845,-0.2952,-0.2968,-0.286,-0.3046,-0.3074,-0.3178,-0.3155,-0.318,-0.319,-0.3395,-0.3394,-0.3393,-0.3305,0,0,0,0,0,0,-0.2709,-0.2712,-0.2699,-0.2763,-0.2777,-0.2809,-0.2821,-0.2831,-0.2853,-0.2853,-0.2963,-0.2982,-0.3047,-0.3162,-0.3189,-0.3171,-0.3198,-0.3396,-0.3395,-0.3394,-0.3309,-0.3301,-0.3295,0,0,0,0,0,-0.2707,-0.2692,-0.2697,-0.2701,-0.2755,-0.2809,-0.2822,-0.2854,-0.2855,-0.2862,-0.2943,-0.2977,-0.317,-0.3173,-0.3204,-0.3188,-0.3397,-0.3395,-0.3394,-0.3312,-0.3303,-0.3295,0,0,0,0,0,0,-0.2656,-0.2695,-0.2701,-0.2694,-0.2737,-0.281,-0.2823,-0.2848,-0.2918,-0.2921,-0.3012,-0.3039,-0.312,-0.317,-0.3169,-0.3241,-0.3273,-0.3278,-0.32,-0.3192,-0.3185,-0.314,-0.3207,0,0,0,0,0,-0.2641,-0.2641,-0.2692,-0.2684,-0.2704,-0.2763,-0.2788,-0.2813,-0.2883,-0.2909,-0.2984,-0.3061,-0.3144,-0.3179,-0.327,-0.3333,-0.3313,-0.3327,-0.332,-0.3314,-0.3295,-0.3218,-0.3201,-0.3388,-0.3388,-0.3388,0,0,-0.2618,-0.2639,-0.2638,-0.2675,-0.2713,-0.2753,-0.2773,-0.2807,-0.2838,-0.2931,-0.2995,-0.3067,-0.3163,-0.3227,-0.326,-0.326,-0.3255,-0.3312,-0.3306,-0.3291,-0.3215,-0.3196,-0.3179,-0.3387,-0.3387,-0.3388,0,0,-0.2598,-0.2593,-0.2602,-0.2641,-0.2692,-0.2733,-0.2736,-0.2806,-0.2826,-0.2912,-0.2969,-0.3003,-0.3157,-0.3177,-0.322,-0.3226,-0.3239,-0.3261,-0.3175,-0.31,-0.3083,-0.3067,-0.3031,-0.3013,-0.3232,-0.3232,-0.3232,0,-0.2571,-0.258,-0.2614,-0.2646,-0.2666,-0.2719,-0.2741,-0.279,-0.2881,-0.2888,-0.2917,-0.3043,-0.3116,-0.3149,-0.3147,-0.3204,-0.3187,-0.3202,-0.3086,-0.307,-0.3056,-0.3022,-0.3003,-0.3227,-0.3228,-0.3228,-0.3229,0,-0.2576,-0.2584,-0.2593,-0.2644,-0.2675,-0.2698,-0.2762,-0.279,-0.2822,-0.2856,-0.2892,-0.297,-0.3017,-0.304,-0.3115,-0.3053,-0.3085,-0.3101,-0.3098,-0.3031,-0.3001,-0.2983,-0.3221,-0.3223,-0.3224,-0.3225,0,0,-0.2508,-0.258,-0.2581,-0.2595,-0.2667,-0.2689,-0.2734,-0.2768,-0.277,-0.2823,-0.2805,-0.2897,-0.2892,-0.2936,-0.2986,-0.292,-0.2817,-0.2967,-0.2965,-0.2914,-0.2678,-0.2589,-0.2561,-0.2815,-0.2811,-0.2808,-0.2702,0,-0.2496,-0.2535,-0.2577,-0.2604,-0.2623,-0.2673,-0.2706,-0.2743,-0.2773,-0.2778,-0.2785,-0.2817,-0.2868,-0.2877,-0.2816,-0.2853,-0.2764,-0.2846,-0.2766,-0.2764,-0.2676,-0.2534,-0.2438,-0.2325,-0.2685,-0.2682,-0.2679,0,-0.2482,-0.2508,-0.2528,-0.2565,-0.2575,-0.2602,-0.2617,-0.2656,-0.2679,-0.2695,-0.2681,-0.2718,-0.268,-0.2709,-0.2636,-0.2696,-0.2665,-0.2656,-0.2652,-0.2579,-0.2637,-0.2449,-0.2279,-0.2274,-0.2652,-0.2654,-0.2656,0,-0.2406,-0.2461,-0.2461,-0.2482,-0.2548,-0.2549,-0.2576,-0.2612,-0.2629,-0.2624,-0.2626,-0.2592,-0.2586,-0.2525,-0.2538,-0.2579,-0.244,-0.2487,-0.2359,-0.2356,-0.226,-0.2252,-0.2051,-0.2353,-0.2353,-0.2353,-0.2353,0,-0.2364,-0.2362,-0.2424,-0.2431,-0.2423,-0.2484,-0.2475,-0.2504,-0.253,-0.2522,-0.2563,-0.2544,-0.2536,-0.2492,-0.2477,-0.2358,-0.2373,-0.2297,-0.2287,-0.223,-0.2222,-0.2206,-0.2266,-0.2349,-0.235,-0.2351,-0.2352,0,-0.2279,-0.2324,-0.233,-0.2382,-0.2392,-0.2383,-0.2431,-0.2424,-0.2469,-0.2456,-0.2453,-0.2489,-0.2419,-0.24,-0.2312,-0.227,-0.2127,-0.2122,-0.2075,-0.2058,-0.1913,-0.1974,-0.1794,-0.1732,-0.1935,-0.1931,-0.1929,0,-0.2237,-0.2234,-0.2277,-0.2275,-0.2294,-0.2303,-0.2306,-0.2371,-0.2374,-0.2416,-0.2395,-0.2359,-0.2299,-0.2155,-0.2053,-0.193,-0.1982,-0.1783,-0.1803,-0.1827,-0.189,-0.1964,-0.1933,-0.1667,-0.1662,-0.1658,-0.1655,0,-0.2151,-0.2168,-0.2175,-0.2172,-0.2173,-0.2181,-0.2197,-0.22,-0.2261,-0.2266,-0.2246,-0.2202,-0.2073,-0.1901,-0.1756,-0.1684,-0.174,-0.1695,-0.1709,-0.1619,-0.1694,-0.1658,-0.187,-0.162,-0.1624,-0.1626,-0.1628,-0.163,-0.2072,-0.2053,-0.2061,-0.2043,-0.2049,-0.2033,-0.1991,-0.2028,-0.2018,-0.1988,-0.2044,-0.1944,-0.1823,-0.1589,-0.1504,-0.1346,-0.1448,-0.1319,-0.1383,-0.145,-0.1383,-0.1518,-0.1266,-0.1267,-0.1269,-0.127,-0.1271,0,-0.1958,-0.1944,-0.1928,-0.1899,-0.1848,-0.1898,-0.1886,-0.1824,-0.1762,-0.1778,-0.1731,-0.1615,-0.1432,-0.1341,-0.117,-0.1084,-0.1081,-0.1075,-0.1169,-0.1142,-0.1225,-0.1204,-0.0938,-0.0938,-0.0938,-0.0938,-0.0938,-0.0938,-0.1895,-0.1834,-0.1823,-0.1698,-0.1673,-0.1558,-0.1521,-0.1466,-0.1444,-0.1347,-0.1305,-0.13,-0.1246,-0.125,-0.1095,-0.1016,-0.103,-0.099,-0.1032,-0.1135,-0.1165,-0.1194,-0.1183,-0.0916,-0.0916,-0.0892,-0.0892,-0.0892]},{"header":{"parameterUnit":"m.s-1","parameterCategory":2,"la1":30.2991,"la2":30.254,"lo1":-89.0895,"lo2":-89.0444,"dy":0.0017,"dx":0.0017,"nx":28,"ny":28,"refTime":"2025-03-21T21:00:00:Z","depth":"0","parameterNumber":3,"parameterNumberName":"V-component_of_CURRENTS"},"data":[0,0,0,0,0,0,0,0,0,0,0,0,0,0,0,0,0,0,0,0,0,0,0,0,0,0,0,0,0,0,0,0,0,0,0,0,0,0,0,0,0,0,0,0,0,0,0,0,0,0,0,0,0,0,0,0,0,0,-0.0408,-0.0407,0,-0.0331,-0.033,-0.0329,-0.0254,-0.0253,-0.0253,-0.0252,0.0062,0.0069,0.0077,0,0,0,0,0,0,0,0,0,0,0,0,0,-0.0441,-0.0441,-0.0408,-0.0407,-0.0406,-0.0331,-0.033,-0.0328,-0.0254,-0.0253,-0.0252,-0.0252,0.0059,0.0069,0.0078,0,0,0,0,0,0,0,0,0,0,0,0,0,-0.04,-0.0441,-0.0408,-0.0362,-0.0357,-0.0331,-0.033,-0.0328,-0.0254,-0.0253,-0.0252,-0.0251,0.0056,0.0068,0.0079,0.0128,0,0,0.0114,0.0119,0,0,0,0,0,0,0,0,-0.0402,-0.0398,-0.037,-0.0365,-0.036,-0.0303,-0.0227,-0.0165,-0.0255,-0.0291,-0.0252,-0.0251,-0.004,-0.0021,-0.0009,0.0142,0.0156,0.0115,0.0122,0.0127,0.013,0,0,0,0,0,0,0,-0.0405,-0.0401,-0.0375,-0.0369,-0.0363,-0.0329,-0.0322,-0.0215,-0.0167,-0.0288,-0.0283,-0.0278,-0.0036,-0.0021,-0.0,0.016,0.0115,0.0125,0.0132,0.0137,0.0406,0.0406,0,0,0,0,0,0,-0.0424,-0.0404,-0.0377,-0.0373,-0.0381,-0.0329,-0.0321,-0.032,-0.0173,-0.0152,-0.0279,-0.0275,-0.0041,-0.0014,0.0011,0.0115,0.0127,0.0138,0.0144,0.0406,0.0406,0.0407,0,0,0,0,0,0,-0.0425,-0.0422,-0.0381,-0.0388,-0.0381,-0.033,-0.033,-0.032,-0.0302,-0.017,-0.0143,-0.0272,-0.0039,-0.0005,0.0108,0.0127,0.0143,0.0153,0.0406,0.0406,0.0406,0.0299,0,0,0,0,0,0,-0.0426,-0.0423,-0.0427,-0.039,-0.0381,-0.0373,-0.0331,-0.0319,-0.0302,-0.0296,-0.0154,-0.0125,-0.0035,0.009,0.0119,0.0143,0.0162,0.0405,0.0406,0.0406,0.0302,0.0296,0.029,0,0,0,0,0,-0.0427,-0.0438,-0.0428,-0.0424,-0.0389,-0.0374,-0.0367,-0.0325,-0.0303,-0.0303,-0.0202,-0.0129,0.0114,0.0099,0.0134,0.0161,0.0405,0.0406,0.0406,0.0305,0.0297,0.0291,0,0,0,0,0,0,-0.0452,-0.0431,-0.0418,-0.0422,-0.0405,-0.0363,-0.0357,-0.0334,-0.0261,-0.0242,-0.0119,-0.0082,0.0028,0.0102,0.0083,0.0238,0.0269,0.0277,0.0181,0.0175,0.0169,0.0135,0.0172,0,0,0,0,0,-0.0463,-0.0466,-0.0442,-0.0445,-0.0439,-0.0402,-0.039,-0.0365,-0.0301,-0.027,-0.0178,-0.0064,0.0054,0.0117,0.0225,0.0309,0.0347,0.0346,0.034,0.0334,0.0329,0.0356,0.035,0.0408,0.0408,0.0408,0,0,-0.0472,-0.0462,-0.0463,-0.045,-0.043,-0.0428,-0.0391,-0.038,-0.0361,-0.024,-0.0178,-0.0074,0.0073,0.017,0.0224,0.0236,0.0343,0.0335,0.0329,0.0328,0.0355,0.0349,0.0344,0.0409,0.0409,0.0409,0,0,-0.05,-0.0486,-0.0501,-0.0492,-0.0476,-0.045,-0.0453,-0.0418,-0.0384,-0.0324,-0.0217,-0.0119,0.0034,0.0139,0.0218,0.0241,0.0313,0.0282,0.0227,0.0252,0.0246,0.0242,0.0295,0.0296,0.0273,0.0273,0.0273,0,-0.0512,-0.0526,-0.0503,-0.0515,-0.0508,-0.0465,-0.0476,-0.0437,-0.037,-0.0334,-0.0316,-0.0104,0.0018,0.0157,0.0171,0.0229,0.0256,0.0242,0.024,0.0237,0.0234,0.0289,0.0292,0.0268,0.0269,0.0269,0.027,0,-0.0552,-0.056,-0.0568,-0.0566,-0.0555,-0.0558,-0.0511,-0.0488,-0.0449,-0.0403,-0.0294,-0.0159,-0.0037,0.0021,0.0116,0.018,0.0211,0.0228,0.0247,0.0221,0.0282,0.0287,0.0261,0.0262,0.0264,0.0265,0,0,-0.0586,-0.0596,-0.0598,-0.0607,-0.0583,-0.058,-0.0547,-0.0502,-0.0477,-0.0413,-0.0373,-0.0186,-0.0137,-0.0045,0.007,0.0103,0.0128,0.015,0.0154,0.0183,0.0193,0.025,0.0262,0.0128,0.0128,0.0127,0.0247,0,-0.0623,-0.0665,-0.0649,-0.067,-0.0684,-0.0635,-0.061,-0.0559,-0.0503,-0.0455,-0.0329,-0.0236,-0.0152,-0.0093,-0.005,0.0101,0.0133,0.0095,0.0233,0.0238,0.0274,0.0266,0.0302,0.0413,0.0252,0.0253,0.0253,0,-0.0667,-0.0688,-0.0726,-0.0724,-0.0725,-0.0723,-0.0679,-0.0652,-0.0559,-0.0515,-0.0431,-0.0335,-0.0211,-0.0177,0.0002,-0.0031,0.0068,0.0153,0.016,0.0251,0.0302,0.0414,0.0428,0.057,0.0261,0.0261,0.026,0,-0.0711,-0.0736,-0.0768,-0.0771,-0.0763,-0.0758,-0.0742,-0.0671,-0.0642,-0.0554,-0.0529,-0.0393,-0.031,-0.0203,-0.0001,-0.001,0.0166,0.0176,0.0317,0.0324,0.0404,0.0417,0.0554,0.0256,0.0256,0.0255,0.0255,0,-0.0758,-0.0782,-0.0795,-0.0815,-0.0841,-0.0811,-0.0812,-0.0773,-0.0714,-0.0678,-0.0567,-0.0503,-0.0323,-0.0186,-0.0037,0.0171,0.0139,0.0312,0.0352,0.0372,0.038,0.0549,0.0599,0.026,0.0259,0.0258,0.0257,0,-0.0803,-0.0814,-0.0855,-0.0865,-0.0868,-0.0888,-0.0875,-0.087,-0.0806,-0.0763,-0.0738,-0.0575,-0.0386,-0.0195,0.0024,0.0147,0.0426,0.0401,0.0432,0.0472,0.0715,0.0757,0.0941,0.1048,0.056,0.0562,0.0564,0,-0.0829,-0.0858,-0.0901,-0.093,-0.0939,-0.0958,-0.0969,-0.0923,-0.0909,-0.0792,-0.0771,-0.0583,-0.042,-0.0075,0.0171,0.0429,0.054,0.0603,0.059,0.0739,0.0816,0.0846,0.0924,0.0668,0.067,0.0672,0.0674,0,-0.0874,-0.0893,-0.0932,-0.0995,-0.1027,-0.1056,-0.106,-0.1062,-0.0992,-0.0925,-0.0787,-0.0648,-0.03,0.0027,0.0358,0.0512,0.0715,0.0651,0.0792,0.09,0.0956,0.1074,0.0598,0.0691,0.0689,0.0688,0.0687,0.0686,-0.0902,-0.0947,-0.0999,-0.1056,-0.11,-0.1134,-0.114,-0.1115,-0.1071,-0.0932,-0.0792,-0.0512,-0.0089,0.0395,0.0563,0.0921,0.0887,0.1027,0.1067,0.1084,0.1183,0.0758,0.0897,0.0897,0.0896,0.0896,0.0895,0,-0.0929,-0.0983,-0.1049,-0.1118,-0.117,-0.1173,-0.1183,-0.1148,-0.1075,-0.0891,-0.0704,-0.0146,0.0274,0.0661,0.113,0.1324,0.1368,0.1419,0.1468,0.1529,0.1148,0.1149,0.1365,0.1365,0.1365,0.1365,0.1365,0.1364,-0.0946,-0.1019,-0.1059,-0.1153,-0.1197,-0.1223,-0.1219,-0.1138,-0.0993,-0.0647,-0.0292,0.0014,0.0576,0.1222,0.1656,0.17,0.1875,0.1848,0.1955,0.1679,0.1645,0.1613,0.1627,0.194,0.1941,0.2336,0.234,0.2343]}],[{"header":{"parameterUnit":"m.s-1","parameterCategory":2,"la1":30.2991,"la2":30.254,"lo1":-89.0895,"lo2":-89.0444,"dy":0.0017,"dx":0.0017,"nx":28,"ny":28,"refTime":"2025-03-21T21:00:00:Z","depth":"2","parameterNumber":2,"parameterNumberName":"U-component_of_CURRENTS"},"data":[0,0,0,0,0,0,0,0,0,0,0,0,0,0,0,0,0,0,0,0,0,0,0,0,0,0,0,0,0,0,0,0,0,0,0,0,0,0,0,0,0,0,0,0,0,0,0,0,0,0,0,0,0,0,0,0,0,0,-0.247,-0.2471,0,-0.254,-0.2541,-0.2542,-0.2537,-0.2536,-0.2535,-0.2534,-0.2553,-0.2555,-0.2556,0,0,0,0,0,0,0,0,0,0,0,0,0,-0.2397,-0.2398,-0.247,-0.2471,-0.2472,-0.254,-0.2541,-0.2542,-0.2537,-0.2536,-0.2535,-0.2534,-0.2553,-0.2555,-0.2556,0,0,0,0,0,0,0,0,0,0,0,0,0,-0.2442,-0.2398,-0.2469,-0.2479,-0.248,-0.254,-0.2541,-0.2542,-0.2537,-0.2536,-0.2535,-0.2534,-0.2552,-0.2554,-0.2556,-0.2596,0,0,-0.2563,-0.2563,0,0,0,0,0,0,0,0,-0.244,-0.2445,-0.2476,-0.2478,-0.248,-0.253,-0.2523,-0.2558,-0.2538,-0.2514,-0.2534,-0.2533,-0.2543,-0.2546,-0.256,-0.2596,-0.2597,-0.2563,-0.2564,-0.2565,-0.2565,0,0,0,0,0,0,0,-0.2436,-0.2442,-0.2496,-0.2478,-0.248,-0.2502,-0.2507,-0.253,-0.2533,-0.2516,-0.2516,-0.2527,-0.2543,-0.2558,-0.2561,-0.2597,-0.2563,-0.2564,-0.2566,-0.2566,-0.264,-0.2641,0,0,0,0,0,0,-0.2429,-0.2439,-0.2494,-0.2498,-0.2458,-0.2505,-0.2509,-0.2514,-0.2534,-0.2536,-0.2528,-0.2527,-0.2556,-0.2558,-0.2561,-0.257,-0.2565,-0.2567,-0.2568,-0.264,-0.2641,-0.2641,0,0,0,0,0,0,-0.2427,-0.2433,-0.2491,-0.2472,-0.2481,-0.2507,-0.2513,-0.2516,-0.2526,-0.2544,-0.2545,-0.2533,-0.2555,-0.2558,-0.2576,-0.2572,-0.2568,-0.2569,-0.2639,-0.264,-0.2641,-0.2612,0,0,0,0,0,0,-0.2425,-0.2432,-0.2432,-0.2471,-0.2482,-0.2514,-0.2514,-0.2519,-0.2536,-0.2534,-0.2549,-0.255,-0.2554,-0.2573,-0.2578,-0.2574,-0.2571,-0.2638,-0.2639,-0.2641,-0.2612,-0.2612,-0.2612,0,0,0,0,0,-0.2422,-0.2422,-0.2431,-0.2438,-0.2481,-0.2515,-0.2522,-0.2535,-0.2537,-0.2539,-0.2553,-0.2549,-0.2585,-0.2575,-0.2581,-0.2578,-0.2637,-0.2639,-0.264,-0.2612,-0.2612,-0.2612,0,0,0,0,0,0,-0.2386,-0.2424,-0.2434,-0.2444,-0.2474,-0.2514,-0.252,-0.2538,-0.2554,-0.2551,-0.2562,-0.2565,-0.2578,-0.2591,-0.258,-0.2606,-0.261,-0.2613,-0.2586,-0.2587,-0.2587,-0.2558,-0.2573,0,0,0,0,0,-0.2382,-0.2389,-0.2432,-0.2438,-0.2453,-0.249,-0.2506,-0.2521,-0.2544,-0.255,-0.2564,-0.258,-0.2594,-0.2599,-0.2616,-0.2635,-0.2613,-0.2638,-0.2638,-0.2637,-0.262,-0.2582,-0.2576,-0.2647,-0.2647,-0.2647,0,0,-0.2369,-0.2391,-0.2394,-0.2431,-0.2454,-0.248,-0.2494,-0.2519,-0.2533,-0.2551,-0.2567,-0.2583,-0.2601,-0.2615,-0.2622,-0.2621,-0.261,-0.264,-0.2639,-0.2621,-0.2583,-0.2576,-0.2569,-0.2648,-0.2648,-0.2648,0,0,-0.2355,-0.2368,-0.2375,-0.2404,-0.2444,-0.2469,-0.2476,-0.2521,-0.2528,-0.256,-0.2567,-0.257,-0.2615,-0.2605,-0.2612,-0.2625,-0.2613,-0.2649,-0.262,-0.2584,-0.2577,-0.257,-0.2539,-0.253,-0.2645,-0.2645,-0.2645,0,-0.2338,-0.2352,-0.2382,-0.2406,-0.2421,-0.2462,-0.2477,-0.2502,-0.2546,-0.2546,-0.2559,-0.2592,-0.26,-0.2593,-0.2597,-0.2618,-0.2607,-0.2614,-0.258,-0.2573,-0.2566,-0.2536,-0.2526,-0.2644,-0.2644,-0.2644,-0.2645,0,-0.2339,-0.2352,-0.2359,-0.2396,-0.2419,-0.2435,-0.2478,-0.2498,-0.2519,-0.2538,-0.2544,-0.2559,-0.2567,-0.2579,-0.2593,-0.2561,-0.2571,-0.2582,-0.2569,-0.2556,-0.2527,-0.2517,-0.2643,-0.2643,-0.2643,-0.2644,0,0,-0.2285,-0.2345,-0.2345,-0.2358,-0.2411,-0.2427,-0.2453,-0.2474,-0.2479,-0.2513,-0.2503,-0.252,-0.2522,-0.2529,-0.2541,-0.2512,-0.2457,-0.2531,-0.253,-0.2482,-0.2384,-0.229,-0.227,-0.2468,-0.2466,-0.2464,-0.2383,0,-0.2269,-0.2296,-0.2333,-0.235,-0.2363,-0.2407,-0.2425,-0.2453,-0.2474,-0.2481,-0.2481,-0.2486,-0.2507,-0.2507,-0.248,-0.2476,-0.243,-0.2478,-0.242,-0.2418,-0.2319,-0.2254,-0.2112,-0.2018,-0.2374,-0.2372,-0.2371,0,-0.2247,-0.2269,-0.2282,-0.2318,-0.2327,-0.2347,-0.2365,-0.2389,-0.2413,-0.2428,-0.2428,-0.2445,-0.2419,-0.2434,-0.2382,-0.242,-0.2387,-0.2374,-0.2371,-0.2279,-0.2303,-0.209,-0.1987,-0.2354,-0.2355,-0.2356,-0.2358,0,-0.2176,-0.2222,-0.2222,-0.2239,-0.2297,-0.2302,-0.2327,-0.2362,-0.2375,-0.2385,-0.2397,-0.238,-0.2374,-0.2337,-0.2322,-0.2351,-0.2255,-0.229,-0.2165,-0.2159,-0.2019,-0.2003,-0.2208,-0.2208,-0.2208,-0.2208,-0.2209,0,-0.2129,-0.2128,-0.219,-0.2194,-0.2195,-0.225,-0.2251,-0.2281,-0.2315,-0.2314,-0.2355,-0.2347,-0.235,-0.2316,-0.2292,-0.2188,-0.2223,-0.2125,-0.2113,-0.2008,-0.1993,-0.2277,-0.2287,-0.2205,-0.2206,-0.2207,-0.2207,0,-0.2045,-0.2088,-0.2094,-0.2148,-0.2163,-0.216,-0.2216,-0.2217,-0.2267,-0.2267,-0.227,-0.231,-0.2255,-0.224,-0.2175,-0.2134,-0.2055,-0.2004,-0.1882,-0.1855,-0.1995,-0.2005,-0.1848,-0.1844,-0.184,-0.1837,-0.1834,0,-0.2001,-0.1997,-0.2046,-0.2049,-0.2071,-0.209,-0.21,-0.2171,-0.218,-0.2234,-0.222,-0.2199,-0.2141,-0.2025,-0.193,-0.1821,-0.1927,-0.1645,-0.1651,-0.1944,-0.1949,-0.1965,-0.1979,-0.1469,-0.1464,-0.1459,-0.1456,0,-0.1914,-0.1933,-0.1943,-0.1951,-0.1961,-0.1979,-0.2006,-0.2015,-0.2083,-0.2092,-0.208,-0.204,-0.1928,-0.1745,-0.1617,-0.1549,-0.1654,-0.1549,-0.1856,-0.1584,-0.1579,-0.1588,-0.1615,-0.1416,-0.142,-0.1423,-0.1425,-0.1427,-0.1838,-0.1822,-0.1835,-0.1831,-0.1848,-0.1845,-0.1811,-0.1852,-0.1847,-0.1821,-0.1877,-0.1759,-0.1713,-0.1421,-0.1312,-0.1227,-0.1348,-0.1308,-0.1325,-0.1345,-0.1317,-0.1305,-0.1087,-0.1089,-0.109,-0.1092,-0.1093,0,-0.1729,-0.1721,-0.1714,-0.17,-0.1666,-0.172,-0.1721,-0.1663,-0.1604,-0.16,-0.155,-0.1347,-0.1196,-0.1153,-0.0944,-0.0888,-0.0909,-0.0863,-0.091,-0.0948,-0.0982,-0.0939,-0.0607,-0.0606,-0.0604,-0.0603,0,0,-0.1669,-0.1617,-0.1611,-0.1516,-0.1506,-0.1413,-0.1383,-0.1325,-0.1289,-0.1185,-0.1115,-0.1153,-0.1133,-0.0895,-0.0814,-0.068,-0.0815,-0.0637,-0.1026,-0.1121,-0.1154,-0.1231,-0.1204,0,0,0,0,0]},{"header":{"parameterUnit":"m.s-1","parameterCategory":2,"la1":30.2991,"la2":30.254,"lo1":-89.0895,"lo2":-89.0444,"dy":0.0017,"dx":0.0017,"nx":28,"ny":28,"refTime":"2025-03-21T21:00:00:Z","depth":"2","parameterNumber":3,"parameterNumberName":"V-component_of_CURRENTS"},"data":[0,0,0,0,0,0,0,0,0,0,0,0,0,0,0,0,0,0,0,0,0,0,0,0,0,0,0,0,0,0,0,0,0,0,0,0,0,0,0,0,0,0,0,0,0,0,0,0,0,0,0,0,0,0,0,0,0,0,-0.0449,-0.0449,0,-0.0397,-0.0396,-0.0395,-0.0339,-0.0338,-0.0338,-0.0337,-0.0202,-0.0199,-0.0196,0,0,0,0,0,0,0,0,0,0,0,0,0,-0.0473,-0.0473,-0.0449,-0.0449,-0.0448,-0.0397,-0.0396,-0.0395,-0.0339,-0.0338,-0.0338,-0.0337,-0.0203,-0.0199,-0.0196,0,0,0,0,0,0,0,0,0,0,0,0,0,-0.0445,-0.0473,-0.0449,-0.0415,-0.0411,-0.0397,-0.0396,-0.0395,-0.0339,-0.0338,-0.0337,-0.0336,-0.0204,-0.02,-0.0195,-0.019,0,0,-0.0182,-0.018,0,0,0,0,0,0,0,0,-0.0447,-0.0444,-0.042,-0.0417,-0.0413,-0.0374,-0.0355,-0.0322,-0.034,-0.0366,-0.0337,-0.0336,-0.0253,-0.0245,-0.0237,-0.0183,-0.0178,-0.0181,-0.0179,-0.0177,-0.0176,0,0,0,0,0,0,0,-0.0449,-0.0446,-0.0428,-0.042,-0.0415,-0.0392,-0.0387,-0.0349,-0.0314,-0.0363,-0.0359,-0.0355,-0.025,-0.0242,-0.0233,-0.0176,-0.0182,-0.0178,-0.0175,-0.0173,-0.0068,-0.0068,0,0,0,0,0,0,-0.046,-0.0448,-0.0429,-0.0426,-0.0429,-0.0393,-0.0387,-0.0387,-0.0316,-0.0305,-0.0356,-0.0353,-0.025,-0.0238,-0.0228,-0.0195,-0.0177,-0.0173,-0.017,-0.0069,-0.0068,-0.0068,0,0,0,0,0,0,-0.0461,-0.0459,-0.0431,-0.0436,-0.0431,-0.0394,-0.0394,-0.0387,-0.0376,-0.0312,-0.0299,-0.0353,-0.0248,-0.0234,-0.0194,-0.019,-0.0171,-0.0167,-0.0069,-0.0069,-0.0068,-0.0143,0,0,0,0,0,0,-0.0462,-0.046,-0.0464,-0.0437,-0.0431,-0.0432,-0.0395,-0.0386,-0.0375,-0.037,-0.0304,-0.0291,-0.0246,-0.0201,-0.0189,-0.0183,-0.0163,-0.0069,-0.0069,-0.0068,-0.014,-0.0145,-0.0149,0,0,0,0,0,-0.0463,-0.0475,-0.0465,-0.0462,-0.0438,-0.0433,-0.0428,-0.0397,-0.0376,-0.0381,-0.0331,-0.0293,-0.019,-0.0198,-0.0184,-0.0177,-0.0069,-0.0069,-0.0068,-0.0138,-0.0144,-0.0149,0,0,0,0,0,0,-0.0486,-0.047,-0.0458,-0.0464,-0.0453,-0.0424,-0.0423,-0.0404,-0.037,-0.0359,-0.0297,-0.028,-0.0244,-0.0201,-0.0211,-0.0144,-0.0121,-0.0118,-0.0179,-0.0184,-0.0188,-0.0191,-0.016,0,0,0,0,0,-0.0496,-0.05,-0.0482,-0.0487,-0.0484,-0.0456,-0.0449,-0.043,-0.0398,-0.0382,-0.0339,-0.0282,-0.0234,-0.0203,-0.0161,-0.0127,-0.0081,-0.0111,-0.0115,-0.0119,-0.0112,-0.0047,-0.0044,-0.0067,-0.0067,-0.0067,0,0,-0.0505,-0.0497,-0.0499,-0.0492,-0.0478,-0.0484,-0.0449,-0.0445,-0.044,-0.0372,-0.035,-0.0303,-0.0231,-0.0194,-0.0172,-0.0155,-0.0091,-0.0119,-0.0123,-0.0113,-0.0046,-0.0044,-0.0042,-0.0067,-0.0067,-0.0067,0,0,-0.0534,-0.0522,-0.0538,-0.0535,-0.0525,-0.0507,-0.051,-0.0487,-0.0466,-0.0447,-0.0389,-0.0339,-0.028,-0.0219,-0.0181,-0.0181,-0.0123,-0.017,-0.0184,-0.0122,-0.0119,-0.0116,-0.007,-0.0062,-0.0163,-0.0163,-0.0163,0,-0.0546,-0.0563,-0.0543,-0.056,-0.0557,-0.0522,-0.0538,-0.0516,-0.0483,-0.0459,-0.0449,-0.0342,-0.0287,-0.0215,-0.0212,-0.019,-0.0152,-0.0175,-0.0128,-0.0124,-0.012,-0.0072,-0.0063,-0.0167,-0.0166,-0.0166,-0.0165,0,-0.059,-0.0601,-0.0611,-0.0617,-0.0613,-0.0622,-0.0593,-0.0581,-0.0553,-0.052,-0.0461,-0.0389,-0.0317,-0.0294,-0.0251,-0.0189,-0.0173,-0.0151,-0.012,-0.0122,-0.0072,-0.0061,-0.0172,-0.017,-0.0169,-0.0168,0,0,-0.062,-0.0639,-0.0642,-0.0653,-0.0643,-0.0645,-0.0634,-0.0606,-0.0586,-0.0544,-0.0507,-0.042,-0.0373,-0.0325,-0.0262,-0.0202,-0.0146,-0.0168,-0.0163,-0.013,-0.0019,-0.0001,0.0014,-0.0121,-0.0119,-0.0117,-0.0001,0,-0.0659,-0.0707,-0.0697,-0.0727,-0.0745,-0.0708,-0.07,-0.0665,-0.0622,-0.0579,-0.0487,-0.0432,-0.0386,-0.0349,-0.0282,-0.0178,-0.0118,-0.018,-0.0012,-0.0007,0.0003,0.0027,0.001,0.0113,0.001,0.0012,0.0013,0,-0.0706,-0.0729,-0.0774,-0.0779,-0.0781,-0.0788,-0.0755,-0.0743,-0.0665,-0.0627,-0.055,-0.0481,-0.0375,-0.0346,-0.0171,-0.0216,-0.0123,-0.0047,-0.004,0.0015,0.0032,0.0104,0.0137,0.0033,0.0031,0.003,0.0028,0,-0.0744,-0.0776,-0.0812,-0.0818,-0.0822,-0.0821,-0.0812,-0.0755,-0.0736,-0.0651,-0.0621,-0.0495,-0.0426,-0.0298,-0.0143,-0.0154,0.0041,0.0049,0.0154,0.0156,0.0196,0.0198,0.0173,0.0173,0.0173,0.0173,0.0172,0,-0.0789,-0.0815,-0.0835,-0.0857,-0.0885,-0.0865,-0.0867,-0.0836,-0.078,-0.0748,-0.0647,-0.0586,-0.041,-0.0279,-0.0148,0.0038,0.0043,0.0163,0.0196,0.0167,0.0166,0.0142,0.0137,0.0177,0.0176,0.0175,0.0174,0,-0.0827,-0.0843,-0.0887,-0.0904,-0.091,-0.093,-0.0922,-0.0916,-0.0857,-0.0812,-0.0787,-0.0639,-0.0464,-0.029,-0.0067,0.0037,0.0208,0.0272,0.0218,0.0242,0.0278,0.0268,0.0401,0.0403,0.0404,0.0406,0.0407,0,-0.0851,-0.0881,-0.0928,-0.0958,-0.097,-0.0991,-0.1002,-0.0962,-0.0947,-0.0838,-0.0815,-0.0641,-0.0501,-0.0182,0.0035,0.0268,0.0267,0.0378,0.0364,0.0287,0.0306,0.0293,0.0281,0.0384,0.0384,0.0385,0.0385,0,-0.0892,-0.0912,-0.0951,-0.1014,-0.1046,-0.1074,-0.108,-0.1079,-0.1015,-0.0952,-0.0828,-0.0705,-0.0401,-0.0134,0.0152,0.0285,0.0336,0.0399,0.0363,0.0318,0.0278,0.0293,0.0281,0.0391,0.0391,0.039,0.039,0.039,-0.0916,-0.0959,-0.1011,-0.1067,-0.111,-0.1141,-0.1147,-0.1123,-0.1081,-0.0955,-0.0837,-0.0604,-0.0379,0.0059,0.0246,0.0425,0.0418,0.0469,0.0464,0.046,0.0427,0.0391,0.0518,0.0518,0.0518,0.0519,0.0519,0,-0.094,-0.0991,-0.1053,-0.1121,-0.117,-0.1177,-0.1184,-0.1152,-0.1084,-0.0929,-0.0768,-0.0459,-0.0165,0.0076,0.0362,0.0514,0.0497,0.0539,0.0485,0.0479,0.0473,0.0439,0.0535,0.0535,0.0536,0.0536,0,0,-0.0956,-0.1024,-0.1061,-0.1149,-0.1193,-0.1221,-0.1217,-0.1141,-0.102,-0.0842,-0.0644,-0.041,-0.0126,0.0081,0.0264,0.0411,0.0403,0.0425,0.0396,0.0303,0.0296,0.0419,0.0357,0,0,0,0,0]}],[{"header":{"parameterUnit":"m.s-1","parameterCategory":2,"la1":30.2991,"la2":30.254,"lo1":-89.0895,"lo2":-89.0444,"dy":0.0017,"dx":0.0017,"nx":28,"ny":28,"refTime":"2025-03-21T21:00:00:Z","depth":"4","parameterNumber":2,"parameterNumberName":"U-component_of_CURRENTS"},"data":[0,0,0,0,0,0,0,0,0,0,0,0,0,0,0,0,0,0,0,0,0,0,0,0,0,0,0,0,0,0,0,0,0,0,0,0,0,0,0,0,0,0,0,0,0,0,0,0,0,0,0,0,0,0,0,0,0,0,-0.1794,-0.1795,0,-0.1855,-0.1856,-0.1856,-0.1887,-0.1887,-0.1887,-0.1888,-0.1863,-0.1862,-0.1861,0,0,0,0,0,0,0,0,0,0,0,0,0,-0.1699,-0.17,-0.1794,-0.1795,-0.1796,-0.1855,-0.1856,-0.1856,-0.1887,-0.1887,-0.1887,-0.1888,-0.1863,-0.1862,-0.1861,0,0,0,0,0,0,0,0,0,0,0,0,0,-0.1746,-0.1701,-0.1794,-0.182,-0.1823,-0.1855,-0.1856,-0.1857,-0.1887,-0.1887,-0.1888,-0.1888,-0.1864,-0.1862,-0.1861,-0.1846,0,0,-0.1857,-0.1856,0,0,0,0,0,0,0,0,-0.1743,-0.1749,-0.1816,-0.1819,-0.1822,-0.1866,-0.1813,-0.185,-0.1887,-0.186,-0.1888,-0.1888,-0.1857,-0.1856,-0.1865,-0.1845,-0.1844,-0.1857,-0.1856,-0.1856,-0.1855,0,0,0,0,0,0,0,-0.174,-0.1747,-0.1816,-0.1817,-0.1821,-0.1827,-0.1834,-0.182,-0.1853,-0.1863,-0.1866,-0.1876,-0.1858,-0.1866,-0.1864,-0.1844,-0.1857,-0.1856,-0.1855,-0.1854,-0.1879,-0.188,0,0,0,0,0,0,-0.1737,-0.1744,-0.1814,-0.1818,-0.1785,-0.1829,-0.1836,-0.185,-0.1855,-0.1857,-0.1876,-0.1877,-0.1868,-0.1866,-0.1864,-0.1889,-0.1856,-0.1854,-0.1854,-0.1877,-0.1879,-0.1881,0,0,0,0,0,0,-0.1735,-0.1743,-0.1812,-0.1784,-0.1793,-0.183,-0.1845,-0.1851,-0.1886,-0.1866,-0.1867,-0.1908,-0.1869,-0.1865,-0.1875,-0.1886,-0.1854,-0.1853,-0.1876,-0.1878,-0.188,-0.1912,0,0,0,0,0,0,-0.1732,-0.1742,-0.1764,-0.1784,-0.1795,-0.184,-0.1845,-0.1852,-0.1891,-0.1895,-0.1893,-0.189,-0.1869,-0.1877,-0.1874,-0.1884,-0.1852,-0.1874,-0.1877,-0.1879,-0.1909,-0.1915,-0.192,0,0,0,0,0,-0.1728,-0.1745,-0.1764,-0.1774,-0.1819,-0.1841,-0.1847,-0.1872,-0.1893,-0.1906,-0.1913,-0.1892,-0.1892,-0.1877,-0.1873,-0.1883,-0.1873,-0.1876,-0.1879,-0.1906,-0.1913,-0.1919,0,0,0,0,0,0,-0.1715,-0.1751,-0.1772,-0.1801,-0.1827,-0.1847,-0.1868,-0.189,-0.191,-0.1921,-0.1904,-0.1901,-0.1912,-0.1901,-0.1886,-0.1902,-0.1881,-0.1883,-0.1903,-0.191,-0.1915,-0.1896,-0.185,0,0,0,0,0,-0.1723,-0.1747,-0.178,-0.1805,-0.1821,-0.1854,-0.1873,-0.1893,-0.1909,-0.1921,-0.1925,-0.1928,-0.1919,-0.1919,-0.1911,-0.1918,-0.1897,-0.1926,-0.1932,-0.1936,-0.192,-0.192,-0.1924,-0.1891,-0.1891,-0.1891,0,0,-0.1726,-0.175,-0.1765,-0.1805,-0.1829,-0.1851,-0.1866,-0.1902,-0.1919,-0.1911,-0.1943,-0.1945,-0.1926,-0.1933,-0.1938,-0.1927,-0.1935,-0.194,-0.1944,-0.1925,-0.1924,-0.1927,-0.1929,-0.1893,-0.1893,-0.1893,0,0,-0.1727,-0.1765,-0.1782,-0.1807,-0.1851,-0.1868,-0.1886,-0.1926,-0.1945,-0.1976,-0.1971,-0.198,-0.1988,-0.1967,-0.1956,-0.1988,-0.1964,-0.2004,-0.2012,-0.2013,-0.2015,-0.2016,-0.1991,-0.199,-0.2008,-0.2008,-0.2008,0,-0.1731,-0.1756,-0.179,-0.1812,-0.1833,-0.1878,-0.1897,-0.1921,-0.1962,-0.1972,-0.1991,-0.2009,-0.1994,-0.198,-0.1992,-0.1995,-0.1992,-0.1984,-0.2018,-0.2019,-0.2019,-0.1993,-0.1991,-0.201,-0.2009,-0.2009,-0.2009,0,-0.1735,-0.1768,-0.178,-0.1821,-0.1848,-0.1872,-0.1909,-0.1944,-0.1983,-0.2002,-0.2026,-0.2023,-0.2027,-0.2034,-0.2017,-0.202,-0.2014,-0.2022,-0.1994,-0.2024,-0.1995,-0.1993,-0.2012,-0.2012,-0.2011,-0.2011,0,0,-0.1697,-0.1768,-0.1774,-0.1798,-0.1856,-0.1873,-0.1909,-0.1939,-0.1963,-0.2011,-0.2029,-0.2027,-0.2045,-0.2033,-0.203,-0.2029,-0.2028,-0.2034,-0.2033,-0.1996,-0.2022,-0.1878,-0.1861,-0.2056,-0.2056,-0.2056,-0.1998,0,-0.1687,-0.1724,-0.1764,-0.1801,-0.182,-0.1874,-0.19,-0.1939,-0.1977,-0.201,-0.2018,-0.2035,-0.2039,-0.2051,-0.2052,-0.2038,-0.2024,-0.2041,-0.2009,-0.2007,-0.1865,-0.1854,-0.2056,-0.1996,-0.1995,-0.1995,-0.1995,0,-0.1662,-0.1694,-0.1728,-0.1789,-0.1803,-0.1838,-0.1889,-0.192,-0.1967,-0.1997,-0.2027,-0.2045,-0.2044,-0.2054,-0.2037,-0.2058,-0.2034,-0.2022,-0.202,-0.1865,-0.1857,-0.1963,-0.199,-0.199,-0.199,-0.1991,-0.1991,0,-0.1593,-0.1661,-0.1687,-0.1709,-0.1788,-0.1817,-0.186,-0.1917,-0.1942,-0.1992,-0.2021,-0.2038,-0.205,-0.2043,-0.2018,-0.204,-0.1992,-0.2018,-0.1856,-0.1846,-0.1981,-0.198,-0.1986,-0.1986,-0.1986,-0.1986,-0.1986,0,-0.1539,-0.1564,-0.1666,-0.168,-0.1718,-0.1786,-0.1828,-0.1874,-0.1935,-0.195,-0.2012,-0.2015,-0.2055,-0.2038,-0.2015,-0.191,-0.1987,-0.183,-0.1814,-0.1997,-0.1998,-0.1978,-0.1978,-0.1984,-0.1984,-0.1985,-0.1985,0,-0.1449,-0.1516,-0.1555,-0.1652,-0.1687,-0.1714,-0.1813,-0.1833,-0.191,-0.1933,-0.1949,-0.2002,-0.1966,-0.1969,-0.1938,-0.1879,-0.1809,-0.175,-0.1918,-0.1917,-0.1665,-0.1668,-0.1564,-0.1558,-0.1553,-0.1549,-0.1546,0,-0.14,-0.1413,-0.1525,-0.1553,-0.1603,-0.1667,-0.1703,-0.1802,-0.1822,-0.1898,-0.1888,-0.1893,-0.1901,-0.1733,-0.1762,-0.1678,-0.166,-0.1619,-0.1654,-0.1623,-0.1619,-0.1629,-0.1639,-0.1538,-0.1537,-0.1535,-0.1534,0,-0.1306,-0.1362,-0.14,-0.1461,-0.1513,-0.1561,-0.1624,-0.1629,-0.172,-0.1811,-0.1758,-0.1719,-0.1665,-0.1624,-0.1555,-0.151,-0.165,-0.1568,-0.1579,-0.1612,-0.1591,-0.1594,-0.1608,-0.1517,-0.152,-0.1521,-0.1522,0,-0.1239,-0.1245,-0.1307,-0.1345,-0.1411,-0.1426,-0.148,-0.1493,-0.1527,-0.1618,-0.1591,-0.1594,-0.1641,-0.1532,-0.1478,-0.1407,-0.1393,-0.1362,-0.1383,-0.1402,-0.1374,-0.1326,-0.113,0,0,0,0,0,-0.1161,-0.1155,-0.1184,-0.1219,-0.1282,-0.1318,-0.1409,-0.1465,-0.1559,-0.1472,-0.1527,-0.1462,-0.1375,-0.1387,-0.1273,-0.1403,-0.1402,-0.1268,-0.138,-0.1423,-0.1443,-0.1424,0,0,0,0,0,0,-0.1108,-0.113,-0.1139,-0.1108,-0.1108,-0.1157,-0.121,-0.1279,-0.1244,-0.134,-0.1294,-0.1364,-0.1296,-0.1395,-0.1236,-0.1236,-0.1275,-0.128,-0.1276,-0.1412,-0.143,-0.1446,-0.1433,0,0,0,0,0]},{"header":{"parameterUnit":"m.s-1","parameterCategory":2,"la1":30.2991,"la2":30.254,"lo1":-89.0895,"lo2":-89.0444,"dy":0.0017,"dx":0.0017,"nx":28,"ny":28,"refTime":"2025-03-21T21:00:00:Z","depth":"4","parameterNumber":3,"parameterNumberName":"V-component_of_CURRENTS"},"data":[0,0,0,0,0,0,0,0,0,0,0,0,0,0,0,0,0,0,0,0,0,0,0,0,0,0,0,0,0,0,0,0,0,0,0,0,0,0,0,0,0,0,0,0,0,0,0,0,0,0,0,0,0,0,0,0,0,0,-0.0345,-0.0345,0,-0.0323,-0.0322,-0.0322,-0.0293,-0.0293,-0.0292,-0.0292,-0.024,-0.0239,-0.0238,0,0,0,0,0,0,0,0,0,0,0,0,0,-0.0348,-0.0348,-0.0345,-0.0345,-0.0345,-0.0323,-0.0322,-0.0322,-0.0293,-0.0292,-0.0292,-0.0291,-0.024,-0.0239,-0.0238,0,0,0,0,0,0,0,0,0,0,0,0,0,-0.0338,-0.0348,-0.0346,-0.0328,-0.0326,-0.0323,-0.0322,-0.0322,-0.0293,-0.0292,-0.0292,-0.0291,-0.0241,-0.0239,-0.0238,-0.0242,0,0,-0.0233,-0.0233,0,0,0,0,0,0,0,0,-0.0339,-0.0338,-0.0331,-0.0329,-0.0327,-0.031,-0.0304,-0.0294,-0.0293,-0.0305,-0.0292,-0.0291,-0.0261,-0.0258,-0.0255,-0.024,-0.0237,-0.0233,-0.0232,-0.0232,-0.0231,0,0,0,0,0,0,0,-0.0339,-0.0339,-0.0336,-0.0331,-0.0328,-0.0316,-0.0314,-0.0302,-0.0287,-0.0304,-0.0302,-0.03,-0.026,-0.0257,-0.0254,-0.0237,-0.0233,-0.0232,-0.0231,-0.023,-0.0211,-0.0211,0,0,0,0,0,0,-0.0344,-0.0339,-0.0337,-0.0335,-0.0332,-0.0316,-0.0314,-0.0316,-0.0287,-0.0283,-0.0301,-0.0299,-0.026,-0.0256,-0.0252,-0.0258,-0.0232,-0.023,-0.0229,-0.0211,-0.0211,-0.0212,0,0,0,0,0,0,-0.0345,-0.0345,-0.0338,-0.0337,-0.0335,-0.0317,-0.032,-0.0316,-0.0316,-0.0285,-0.028,-0.0305,-0.0259,-0.0254,-0.0246,-0.0255,-0.023,-0.0228,-0.021,-0.0211,-0.0211,-0.0267,0,0,0,0,0,0,-0.0345,-0.0345,-0.0352,-0.0337,-0.0335,-0.0346,-0.032,-0.0316,-0.0316,-0.0313,-0.0287,-0.0281,-0.0258,-0.0249,-0.0245,-0.0253,-0.0227,-0.021,-0.0211,-0.0211,-0.0265,-0.027,-0.0274,0,0,0,0,0,-0.0345,-0.0359,-0.0353,-0.0352,-0.0345,-0.0347,-0.0346,-0.033,-0.0317,-0.0326,-0.0303,-0.0282,-0.025,-0.0248,-0.0244,-0.0251,-0.021,-0.021,-0.0211,-0.0263,-0.0269,-0.0274,0,0,0,0,0,0,-0.0363,-0.0357,-0.035,-0.0361,-0.0359,-0.0343,-0.0349,-0.0337,-0.0327,-0.0323,-0.029,-0.0284,-0.0282,-0.0259,-0.0258,-0.0246,-0.0225,-0.0225,-0.0266,-0.0271,-0.0275,-0.0267,-0.0226,0,0,0,0,0,-0.0372,-0.038,-0.0371,-0.0381,-0.0382,-0.0367,-0.0367,-0.0357,-0.0345,-0.034,-0.0322,-0.0299,-0.0282,-0.0271,-0.0257,-0.0252,-0.0204,-0.0252,-0.0257,-0.026,-0.025,-0.0171,-0.0166,-0.0214,-0.0214,-0.0214,0,0,-0.0381,-0.0379,-0.0383,-0.0386,-0.0381,-0.0393,-0.0366,-0.0371,-0.0378,-0.0336,-0.0342,-0.0319,-0.0286,-0.0281,-0.0277,-0.0262,-0.0228,-0.0261,-0.0265,-0.0252,-0.0171,-0.0166,-0.0162,-0.0215,-0.0215,-0.0215,0,0,-0.0408,-0.0404,-0.0422,-0.0425,-0.0425,-0.0417,-0.0422,-0.0414,-0.0407,-0.0412,-0.0379,-0.0355,-0.0344,-0.0309,-0.0292,-0.0309,-0.0258,-0.0314,-0.0323,-0.0247,-0.0242,-0.0237,-0.0195,-0.0185,-0.031,-0.031,-0.031,0,-0.0419,-0.0439,-0.0428,-0.0448,-0.0453,-0.0432,-0.0452,-0.0446,-0.0437,-0.0424,-0.0422,-0.0373,-0.0351,-0.0315,-0.0324,-0.0318,-0.0276,-0.0309,-0.0251,-0.0245,-0.0238,-0.0196,-0.0185,-0.0313,-0.0312,-0.0312,-0.0312,0,-0.046,-0.0477,-0.0489,-0.0504,-0.051,-0.0524,-0.0514,-0.0515,-0.0503,-0.0485,-0.0458,-0.042,-0.038,-0.0376,-0.0359,-0.0308,-0.0296,-0.0271,-0.0237,-0.0237,-0.0193,-0.018,-0.0317,-0.0316,-0.0315,-0.0314,0,0,-0.048,-0.0511,-0.0516,-0.0532,-0.0539,-0.0548,-0.0556,-0.0548,-0.0538,-0.052,-0.0494,-0.0462,-0.0423,-0.0399,-0.0364,-0.0302,-0.0239,-0.0274,-0.0269,-0.0231,-0.009,-0.0118,-0.0106,-0.02,-0.0197,-0.0195,-0.0087,0,-0.0514,-0.0564,-0.0566,-0.0606,-0.0627,-0.061,-0.0618,-0.0603,-0.058,-0.0552,-0.0489,-0.0459,-0.0437,-0.0414,-0.0348,-0.0266,-0.0203,-0.0272,-0.0096,-0.0091,-0.0113,-0.0091,-0.0188,-0.0077,-0.0074,-0.0071,-0.007,0,-0.0551,-0.0579,-0.063,-0.0651,-0.0657,-0.0676,-0.0666,-0.0669,-0.0617,-0.0592,-0.0534,-0.0484,-0.0403,-0.0379,-0.0222,-0.0267,-0.0182,-0.0115,-0.0108,-0.01,-0.0094,-0.0069,-0.0046,-0.0048,-0.0049,-0.0051,-0.0053,0,-0.0571,-0.0617,-0.0659,-0.0671,-0.0695,-0.0706,-0.0712,-0.0681,-0.0673,-0.0609,-0.0584,-0.048,-0.0426,-0.03,-0.0181,-0.019,-0.0004,0.0008,0.0065,0.0063,0.008,0.0074,0.0141,0.0141,0.014,0.014,0.014,0,-0.0599,-0.0632,-0.0676,-0.0701,-0.074,-0.0739,-0.0755,-0.074,-0.0703,-0.0681,-0.0604,-0.0552,-0.0398,-0.0283,-0.0171,-0.0024,0.0011,0.0073,0.0101,0.0048,0.0037,0.0088,0.008,0.0144,0.0143,0.0142,0.0142,0,-0.0613,-0.0645,-0.0697,-0.0739,-0.0755,-0.0783,-0.0802,-0.0802,-0.0765,-0.0729,-0.0708,-0.0589,-0.0441,-0.0297,-0.009,-0.0018,0.0129,0.0177,0.0088,0.0107,0.0141,0.0129,0.0257,0.0257,0.0257,0.0258,0.0258,0,-0.0622,-0.0654,-0.073,-0.0767,-0.0793,-0.0831,-0.0853,-0.0838,-0.0827,-0.0747,-0.0722,-0.0584,-0.0491,-0.0223,-0.008,0.013,0.0158,0.022,0.0201,0.0144,0.0159,0.0146,0.0135,0.0258,0.0258,0.0258,0.0258,0,-0.0636,-0.0672,-0.0718,-0.0796,-0.0843,-0.0883,-0.0905,-0.0898,-0.086,-0.0832,-0.0703,-0.0566,-0.0402,-0.0213,-0.0058,0.0093,0.017,0.0222,0.0223,0.0206,0.0147,0.0158,0.0146,0.0258,0.0258,0.0258,0.0258,0,-0.0644,-0.0684,-0.0751,-0.0813,-0.0879,-0.0911,-0.0921,-0.0889,-0.0867,-0.077,-0.0726,-0.0548,-0.044,-0.023,-0.0084,0.0051,0.0087,0.0125,0.0131,0.0132,0.0053,-0.0043,0.0047,0,0,0,0,0,-0.0643,-0.069,-0.0757,-0.0828,-0.0893,-0.0924,-0.0944,-0.0938,-0.09,-0.0809,-0.0761,-0.0602,-0.0368,-0.0264,-0.0127,-0.0101,0.0088,0.0059,0.0129,0.0261,0.0261,0.0186,0,0,0,0,0,0,-0.0647,-0.0714,-0.0752,-0.0824,-0.087,-0.0928,-0.0942,-0.0917,-0.0852,-0.0793,-0.066,-0.0584,-0.0354,-0.044,-0.0127,-0.0087,-0.0029,0.0171,0.0174,0.0262,0.0261,0.0261,0.0183,0,0,0,0,0]}]]